Hourly Data Report for October 21, 2015

All times are specified in Local Standard Time (LST). Add 1 hour to adjust for Daylight Saving Time where and when it is observed.

ST LEONARD CS
NEW BRUNSWICK

47°09'28.050" N
67°49'55.014" W
245.00 m
810I001
71019
WIY

Download Data

Hourly Data (October 2015)
Hourly Data Report for October 21, 2015
Temp Definition
°C
Dew Point Temp Definition
°C
Rel Hum Definition
%
Wind Dir Definition
10's deg

Wind Spd Definition
km/h
Visibility Definition
km
Stn Press Definition
kPa
Hmdx Definition


Wind Chill Definition


Weather Definition


TIME
00:00 0.3 -5.9 63 30 15   98.89     LegendNANA
01:00 -1.6 -5.8 73 28 4   98.96   -3 LegendNANA
02:00 -3.2 -6.1 80 28 6   99.02   -6 LegendNANA
03:00 -2.7 -6.4 76 22 4   99.05   -4 LegendNANA
04:00 -3.0 -6.1 79 27 4   99.10   -5 LegendNANA
05:00 -2.5 -6.3 75 23 6   99.16   -5 LegendNANA
06:00 -2.5 -5.7 79 26 12   99.27   -7 LegendNANA
07:00 -2.3 -6.3 74 28 11   99.36   -6 LegendNANA
08:00 -1.3 -6.1 69 27 14   99.45   -6 LegendNANA
09:00 0.3 -6.4 61 30 25   99.49     LegendNANA
10:00 1.2 -6.1 58 29 23   99.56     LegendNANA
11:00 1.9 -6.6 53 31 23   99.58     LegendNANA
12:00 3.0 -6.1 51 31 19   99.57     LegendNANA
13:00 4.0 -6.2 47 31 21   99.55     LegendNANA
14:00 5.0 -5.6 46 29 19   99.55     LegendNANA
15:00 4.9 -6.3 44 30 16   99.57     LegendNANA
16:00 5.3 -5.7 45 30 12   99.60     LegendNANA
17:00 4.4 -6.3 46 30 7   99.64     LegendNANA
18:00 1.7 -5.7 58 32 4   99.70     LegendNANA
19:00 -1.6 -5.2 76 35 8   99.77   -5 LegendNANA
20:00 -2.0 -4.7 82 6 4   99.81   -3 LegendNANA
21:00 -2.6 -5.2 83 2 6   99.80   -5 LegendNANA
22:00 -1.8 -5.6 75 7 5   99.79   -4 LegendNANA
23:00 -3.4 -5.5 85 13 7   99.78   -6 LegendNANA

Notes on Data Quality.

Legend

  • E = Estimated
  • M = Missing
  • NA = Not Available
  • ‡ = Partner data that is not subject to review by the National Climate Archives
Date modified: